Weather History for Lyndonville, VT

Change the Weather History Date:

Saturday, February 23, 2013

  Actual Average (K1V4) Record (K1V4)
Temperature  
Mean Temperature 29 °F 22 °F  
Max Temperature 31 °F 33 °F 58 °F (1984)
Min Temperature 27 °F 10 °F -25 °F (1972)
Degree Days  
Heating Degree Days 36 43  
Month to date heating degree days 1063  
Since 1 July heating degree days 5512  
Moisture  
Dew Point 24 °F    
Average Humidity 77    
Maximum Humidity 92    
Minimum Humidity 61    
Precipitation  
Precipitation 0.00 in 0.08 in 0.97 in (1974)
Month to date precipitation 1.79  
Year to date precipitation 4.30  
Sea Level Pressure  
Sea Level Pressure 30.07 in    
Wind  
Wind Speed 5 mph (SSE)    
Max Wind Speed 12 mph    
Max Gust Speed 16 mph    
Visibility 6 miles    
Events Snow    
T = Trace of Precipitation, MM = Missing Value Source: NWS Daily Summary

Daily Weather History Graph

Daily Weather History Graph

Search for Another Location

Airport:

Trip Planner

Search our weather history database for the weather conditions in past years. The results will help you decide how hot, cold, wet, or windy it might be!

Date:

Astronomy

Feb. 23, 2013 Rise Set
Actual Time 6:35 AM EST 5:28 PM EST
Civil Twilight 6:05 AM EST 5:57 PM EST
Nautical Twilight 5:32 AM EST 6:31 PM EST
Astronomical Twilight 4:58 AM EST 7:05 PM EST
Moon 3:33 PM EST (2/23) 4:59 AM EST (2/23)
Length of Visible Light 11h 51m
Length of Day
10h 52m
Waxing Gibbous, 95% of the Moon is Illuminated
Feb 23
Waxing Gibbous
Feb 25
Full
Mar 4
Last Quarter
Mar 11
New
Mar 19
First Quarter

Hourly Weather History & Observations

Time (EST) Temp. Windchill Dew Point Humidity Pressure Visibility Wind Dir Wind Speed Gust Speed Precip Events Conditions
12:15 AM 28.4 °F - 17.4 °F 63% 30.24 in 10.0 mi Calm Calm - N/A   Unknown
12:35 AM 28.4 °F - 17.4 °F 63% 30.23 in 10.0 mi Calm Calm - N/A   Unknown
12:55 AM 28.4 °F - 17.4 °F 63% 30.23 in 10.0 mi Calm Calm - N/A   Unknown
1:15 AM 28.0 °F 24.2 °F 17.4 °F 64% 30.22 in 10.0 mi SSE 3.5 mph - N/A   Unknown
1:35 AM 28.4 °F 23.3 °F 17.6 °F 64% 30.21 in 10.0 mi SE 4.6 mph - N/A   Unknown
1:55 AM 27.9 °F 22.6 °F 18.0 °F 66% 30.21 in 10.0 mi SSE 4.6 mph - N/A   Unknown
2:15 AM 28.4 °F 22.2 °F 18.0 °F 65% 30.20 in 10.0 mi SSE 5.8 mph - N/A   Unknown
2:35 AM 28.4 °F 23.3 °F 18.3 °F 66% 30.20 in 10.0 mi SSE 4.6 mph - N/A   Unknown
2:55 AM 28.0 °F 21.7 °F 18.1 °F 66% 30.19 in 10.0 mi South 5.8 mph - N/A   Unknown
3:15 AM 28.4 °F 21.2 °F 17.6 °F 64% 30.18 in 10.0 mi SSE 6.9 mph - N/A   Unknown
3:35 AM 29.1 °F 21.3 °F 18.0 °F 63% 30.18 in 10.0 mi SSE 8.1 mph - N/A   Unknown
3:55 AM 28.9 °F 21.9 °F 18.1 °F 64% 30.17 in 10.0 mi SSE 6.9 mph - N/A   Unknown
4:15 AM 28.6 °F 22.4 °F 18.3 °F 65% 30.16 in 10.0 mi SSE 5.8 mph - N/A   Unknown
4:35 AM 29.1 °F 20.6 °F 18.5 °F 65% 30.16 in 10.0 mi South 9.2 mph - N/A   Unknown
4:55 AM 29.3 °F 20.8 °F 18.1 °F 63% 30.17 in 10.0 mi South 9.2 mph - N/A   Unknown
5:15 AM 29.3 °F 19.6 °F 18.1 °F 63% 30.16 in 10.0 mi South 11.5 mph - N/A   Unknown
5:35 AM 29.3 °F 20.8 °F 17.8 °F 62% 30.17 in 10.0 mi South 9.2 mph - N/A   Unknown
5:55 AM 29.3 °F 22.3 °F 17.2 °F 61% 30.16 in 10.0 mi SSE 6.9 mph - N/A   Unknown
6:15 AM 29.3 °F 22.3 °F 17.4 °F 61% 30.16 in 10.0 mi SSE 6.9 mph - N/A   Unknown
6:35 AM 29.3 °F 23.2 °F 17.8 °F 62% 30.15 in 10.0 mi SSE 5.8 mph - N/A   Unknown
7:15 AM 29.1 °F 25.4 °F 18.5 °F 65% 30.14 in 10.0 mi South 3.5 mph - N/A   Unknown
7:35 AM 29.3 °F 24.3 °F 18.7 °F 65% 30.14 in 10.0 mi South 4.6 mph - N/A   Unknown
7:55 AM 29.3 °F 24.3 °F 19.0 °F 66% 30.14 in 10.0 mi South 4.6 mph - N/A   Unknown
8:15 AM 29.5 °F 23.4 °F 18.5 °F 64% 30.14 in 10.0 mi South 5.8 mph - N/A   Unknown
8:35 AM 29.8 °F 22.2 °F 19.4 °F 65% 30.14 in 10.0 mi South 8.1 mph - N/A   Unknown
8:55 AM 30.0 °F 21.7 °F 19.9 °F 66% 30.13 in 10.0 mi SSE 9.2 mph - N/A   Unknown
9:15 AM 30.2 °F 22.6 °F 20.8 °F 68% 30.13 in 10.0 mi South 8.1 mph - N/A   Unknown
9:35 AM 30.6 °F 21.8 °F 21.2 °F 68% 30.13 in 10.0 mi South 10.4 mph - N/A   Unknown
9:55 AM 30.9 °F 22.2 °F 21.7 °F 69% 30.12 in 10.0 mi South 10.4 mph 16.1 mph N/A   Unknown
10:15 AM 31.1 °F 23.1 °F 22.3 °F 70% 30.12 in 10.0 mi South 9.2 mph - N/A   Unknown
10:35 AM 31.1 °F 23.7 °F 22.6 °F 71% 30.11 in 7.0 mi South 8.1 mph - N/A Snow Light Snow
10:55 AM 30.7 °F 26.0 °F 24.6 °F 78% 30.11 in 1.5 mi South 4.6 mph - N/A Snow Light Snow
11:15 AM 30.9 °F 23.5 °F 24.8 °F 78% 30.10 in 4.0 mi South 8.1 mph - N/A Snow Light Snow
11:35 AM 31.1 °F 23.1 °F 24.3 °F 76% 30.09 in 5.0 mi South 9.2 mph - N/A Snow Light Snow
11:55 AM 31.1 °F 23.1 °F 23.7 °F 74% 30.08 in 7.0 mi South 9.2 mph - N/A   Unknown
12:15 PM 31.5 °F 24.2 °F 23.7 °F 73% 30.08 in 10.0 mi South 8.1 mph - N/A   Unknown
12:35 PM 31.3 °F 24.7 °F 24.6 °F 76% 30.07 in 2.5 mi South 6.9 mph - N/A Snow Light Snow
12:55 PM 31.1 °F 24.5 °F 25.5 °F 80% 30.05 in 2.5 mi SSE 6.9 mph - N/A Snow Light Snow
1:15 PM 31.5 °F 28.1 °F 26.4 °F 82% 30.05 in 3.0 mi South 3.5 mph - N/A Snow Light Snow
1:35 PM 31.5 °F 25.8 °F 26.1 °F 80% 30.05 in 3.0 mi South 5.8 mph - N/A Snow Light Snow
1:55 PM 31.5 °F 25.8 °F 26.1 °F 80% 30.04 in 3.0 mi South 5.8 mph - N/A Snow Light Snow
2:15 PM 31.1 °F 25.4 °F 26.6 °F 83% 30.03 in 1.0 mi South 5.8 mph - N/A Snow Light Snow
2:35 PM 31.1 °F 24.5 °F 27.5 °F 87% 30.02 in 1.0 mi South 6.9 mph - N/A Snow Light Snow
2:55 PM 31.1 °F 24.5 °F 27.5 °F 87% 30.02 in 2.0 mi South 6.9 mph - N/A Snow Light Snow
3:15 PM 31.1 °F 25.4 °F 27.5 °F 87% 30.02 in 2.0 mi South 5.8 mph - N/A Snow Light Snow
3:35 PM 30.9 °F 27.5 °F 27.9 °F 88% 30.02 in 0.5 mi South 3.5 mph - N/A Snow Snow
3:55 PM 30.7 °F 26.0 °F 28.0 °F 90% 30.01 in 1.0 mi South 4.6 mph - N/A Snow Light Snow
4:15 PM 30.7 °F 26.0 °F 28.0 °F 90% 30.01 in 0.8 mi South 4.6 mph - N/A Snow Light Snow
4:35 PM 30.7 °F 26.0 °F 28.0 °F 90% 30.01 in 0.5 mi South 4.6 mph - N/A Snow Light Snow
4:55 PM 30.6 °F 24.7 °F 28.0 °F 90% 30.00 in 0.5 mi South 5.8 mph - N/A Snow Light Snow
5:15 PM 30.6 °F 25.8 °F 28.0 °F 90% 30.00 in 1.0 mi South 4.6 mph - N/A Snow Light Snow
5:35 PM 30.4 °F 25.6 °F 28.0 °F 91% 29.99 in 1.8 mi South 4.6 mph - N/A Snow Light Snow
5:55 PM 30.4 °F 26.9 °F 28.0 °F 91% 29.99 in 1.2 mi SSE 3.5 mph - N/A Snow Light Snow
6:15 PM 30.2 °F 25.4 °F 27.9 °F 91% 29.98 in 1.2 mi SSE 4.6 mph - N/A Snow Light Snow
6:35 PM 30.4 °F 24.5 °F 27.9 °F 90% 29.98 in 0.8 mi SSE 5.8 mph - N/A Snow Snow
6:55 PM 30.4 °F 25.6 °F 28.0 °F 91% 29.98 in 1.0 mi SSE 4.6 mph - N/A Snow Light Snow
7:15 PM 30.2 °F 24.3 °F 27.9 °F 91% 29.97 in 1.2 mi SSE 5.8 mph - N/A Snow Light Snow
7:35 PM 30.2 °F 25.4 °F 28.0 °F 92% 29.97 in 1.8 mi SSE 4.6 mph - N/A Snow Light Snow
7:55 PM 30.4 °F 25.6 °F 28.2 °F 92% 29.97 in 2.0 mi South 4.6 mph - N/A Snow Light Snow
8:15 PM 30.6 °F 24.7 °F 28.2 °F 91% 29.96 in 1.5 mi SSE 5.8 mph - N/A Snow Light Snow
8:35 PM 30.6 °F 25.8 °F 28.2 °F 91% 29.96 in 1.8 mi SSE 4.6 mph - N/A Snow Light Snow
8:55 PM 30.2 °F 24.3 °F 28.2 °F 92% 29.96 in 2.5 mi SSE 5.8 mph - N/A Snow Light Snow
9:15 PM 30.4 °F 26.9 °F 28.4 °F 92% 29.96 in 1.5 mi SSE 3.5 mph - N/A Snow Light Snow
9:35 PM 30.6 °F 27.1 °F 28.4 °F 92% 29.95 in 1.2 mi SSE 3.5 mph - N/A Snow Light Snow
9:55 PM 30.6 °F 25.8 °F 28.4 °F 92% 29.95 in 1.5 mi SSE 4.6 mph - N/A Snow Light Snow
10:15 PM 30.6 °F 27.1 °F 28.4 °F 92% 29.93 in 1.2 mi SSE 3.5 mph - N/A Snow Light Snow
10:35 PM 30.6 °F 27.1 °F 28.4 °F 92% 29.92 in 2.0 mi SSE 3.5 mph - N/A Snow Light Snow
10:55 PM 30.6 °F 27.1 °F 28.4 °F 92% 29.91 in 2.0 mi SE 3.5 mph - N/A Snow Light Snow
11:15 PM 30.6 °F - 28.4 °F 92% 29.91 in 2.5 mi Calm Calm - N/A   Unknown
11:35 PM 30.6 °F 27.1 °F 28.4 °F 92% 29.91 in 2.5 mi SSE 3.5 mph - N/A Snow Light Snow
11:55 PM 30.7 °F 24.9 °F 28.4 °F 91% 29.91 in 2.5 mi South 5.8 mph - N/A Snow Light Snow